Temp
88 104 106 99 82 84 80 86 94 89 90 97 98 96 95 98 91 80 103 104 106 100 93 88 80 81 81 81 80 80 79 79 79 79 79 79 79 79 79 79 80 80 81 81 81 81 81 81 81
98 101 101 93 79 75 78 91 88 92 94 97 97 97 96 92 100 100 101 101 105 99 93 93 80 80 80 80 80 80 79 79 79 79 79 79 79 79 79 79 80 80 81 81 81 81 81 81 81
95 101 90 85 80 76 77 86 92 94 95 95 94 98 96 91 99 100 102 102 104 98 95 91 80 80 80 80 80 79 79 79 79 79 79 79 79 79 79 79 80 80 81 81 81 81 81 80 80
96 96 92 79 77 85 85 90 93 91 95 97 96 91 98 98 97 101 102 104 101 99 98 82 79 79 80 80 79 79 79 79 79 79 79 79 79 79 79 79 79 80 81 81 81 80 80 80 80
97 91 80 78 78 87 90 92 91 90 91 94 95 91 91 99 100 102 101 103 101 101 100 89 79 79 80 80 79 79 79 79 79 79 79 79 79 78 78 79 79 80 81 81 80 80 79 79 80
85 88 75 73 79 86 88 92 91 91 93 94 93 91 93 102 100 101 103 103 105 102 101 92 81 79 79 79 79 79 79 79 79 79 79 79 78 78 78 79 79 80 80 80 80 79 79 79 79
81 80 75 78 79 83 86 93 89 90 92 91 96 88 96 99 102 103 102 104 106 104 102 95 90 84 79 78 78 78 78 78 78 78 78 78 78 78 78 78 79 79 79 79 79 79 79 79 79
86 81 75 79 77 79 89 89 92 90 89 98 95 87 90 97 101 105 105 105 106 105 103 99 93 91 89 88 78 78 78 78 77 78 78 77 78 78 78 77 78 79 79 79 78 78 78 78 78
91 75 70 74 78 82 88 85 89 95 89 92 95 95 98 100 102 102 101 102 104 104 102 101 97 93 93 95 87 78 78 78 77 79 78 77 88 86 84 82 78 78 78 78 78 78 78 78 78
81 74 75 83 85 84 84 86 88 89 87 88 91 96 99 100 99 97 99 99 100 101 102 103 96 95 94 98 92 88 89 87 86 87 85 88 89 91 91 86 78 78 78 78 78 78 78 78 90
82 75 84 85 84 84 84 84 90 86 81 87 87 92 97 97 97 97 98 100 102 102 102 103 96 94 94 96 95 92 92 90 89 88 89 87 90 91 91 90 87 85 80 87 83 83 86 89 92
77 83 84 85 84 82 79 85 82 84 86 92 93 93 94 94 95 97 99 101 102 102 100 100 100 93 92 97 96 94 93 92 91 90 89 89 89 89 90 92 91 88 90 88 91 91 89 90 92
79 82 84 86 85 84 84 80 81 83 89 92 92 92 92 92 94 97 99 100 100 99 100 97 97 93 91 90 95 94 93 93 92 92 90 90 89 88 89 90 93 91 93 91 91 92 91 90 90
82 81 82 83 84 84 80 80 82 84 88 87 88 88 91 92 94 94 95 96 97 98 99 99 97 93 90 88 89 91 92 93 92 92 90 89 90 88 89 89 90 93 93 95 92 92 91 89 91
81 75 78 80 82 80 83 75 77 86 88 85 86 87 89 91 94 94 96 95 97 95 95 96 95 94 89 87 88 91 92 93 91 92 89 88 87 87 86 86 89 91 91 91 91 90 89 89 92
75 75 70 81 81 82 77 69 83 88 84 83 85 87 87 88 92 95 96 96 95 94 93 93 95 94 89 86 86 88 90 90 91 87 91 87 84 86 86 88 88 90 89 88 88 87 88 89 91
73 67 70 75 82 79 77 72 82 85 83 81 83 86 87 88 90 91 93 94 94 93 92 91 92 91 89 86 86 85 87 89 90 90 91 86 83 83 84 87 89 87 90 88 88 86 87 88 89
68 68 72 70 78 77 74 74 81 85 84 82 83 85 86 87 88 92 93 92 92 91 89 89 89 91 88 88 85 84 86 88 90 90 89 88 85 84 83 87 82 86 88 88 88 84 88 89 89
72 70 69 74 78 73 72 73 77 81 82 81 83 84 85 87 91 93 93 93 92 91 89 85 83 80 89 89 87 83 84 87 89 90 90 90 87 86 82 86 87 86 85 85 85 86 83 86 86
70 67 67 73 76 73 71 70 76 79 80 82 81 82 84 86 88 90 91 92 91 89 89 88 86 85 84 86 84 85 84 89 90 91 89 90 89 88 85 84 86 84 86 83 84 82 84 84 86
68 66 67 67 72 74 70 67 72 79 82 83 84 84 85 84 84 86 88 89 90 89 87 87 87 86 84 85 88 85 85 85 85 86 87 86 86 86 84 84 85 85 84 85 83 83 80 82 84
63 73 70 66 64 59 72 56 68 75 77 80 82 83 84 84 85 86 86 87 86 86 88 87 86 84 86 83 85 81 83 82 86 86 88 88 86 85 85 83 83 82 86 82 83 83 82 79 81
66 73 68 67 64 63 64 61 67 75 72 75 77 79 80 82 83 82 83 84 85 85 85 85 84 83 84 83 83 85 79 84 88 89 84 84 83 83 84 84 83 82 84 83 82 80 78 81 80
73 68 67 68 65 54 63 62 64 70 69 71 74 76 77 79 80 81 83 84 83 85 85 83 82 81 84 83 82 80 80 78 86 85 86 87 86 84 82 85 83 82 82 82 82 80 80 78 78
69 62 53 52 52 50 66 61 64 71 71 70 70 73 76 77 78 79 80 81 79 82 82 82 81 79 81 83 82 82 79 79 78 78 78 84 87 86 80 82 82 83 82 83 82 79 78 77 75
66 63 53 41 46 54 64 54 65 72 73 72 73 72 75 74 75 75 77 78 80 80 80 81 79 78 79 81 83 83 80 78 77 77 83 87 86 88 84 82 84 83 83 81 78 77 78 78 73
62 58 65 53 55 50 57 63 71 72 70 70 72 72 72 74 75 76 77 78 79 78 79 79 79 78 78 79 81 82 80 77 76 79 78 86 85 88 82 82 83 83 80 80 79 80 78 80 78
63 68 51 56 38 39 53 55 59 64 65 69 70 70 73 75 76 76 77 78 78 78 79 79 78 78 79 78 80 83 81 78 78 78 75 75 81 86 83 82 82 82 83 83 80 81 80 77 79
58 57 58 57 51 38 40 52 67 64 66 67 70 72 73 74 75 75 77 78 79 79 80 78 78 77 78 79 79 79 81 82 76 71 69 73 78 84 86 85 84 84 84 83 80 80 81 79 76
64 59 59 46 45 51 49 50 70 67 70 70 71 73 75 74 74 76 76 77 77 78 79 77 76 77 78 79 77 78 77 80 79 75 66 71 81 82 84 84 84 84 84 83 81 80 82 78 75
MSLP
1008.63 1006.68 1005.91 1004.98 1004.03 1001.57 999.06 997.39 996.60 997.13 998.03 998.57 998.85 998.42 997.59 997.42 997.89 999.40 1001.12 1001.78 1001.89 1003.40 1005.36 1006.61 1007.27 1007.46 1007.94 1008.56 1009.07 1009.50 1009.93 1010.38 1010.69 1011.00 1011.35 1011.70 1011.97 1012.27 1012.49 1012.74 1013.06 1013.34 1013.50 1013.66 1013.83 1014.02 1014.02 1014.05 1014.26
1008.22 1006.66 1005.44 1003.85 1002.34 999.85 998.30 997.11 997.21 997.47 998.51 999.12 999.04 998.72 998.38 998.26 999.30 1000.11 1000.97 1002.50 1002.61 1004.12 1005.44 1006.23 1007.38 1007.64 1008.10 1008.52 1008.96 1009.55 1010.04 1010.42 1010.82 1011.31 1011.67 1011.92 1012.23 1012.48 1012.82 1013.00 1013.27 1013.46 1013.68 1013.81 1013.95 1014.09 1014.20 1014.37 1014.50
1008.29 1006.57 1004.91 1002.97 1001.41 999.22 997.97 998.39 997.82 998.39 999.39 998.98 998.85 999.30 999.14 1000.10 1000.54 1000.81 1002.05 1002.91 1003.18 1004.53 1005.51 1006.28 1007.61 1007.82 1008.21 1008.83 1009.22 1009.62 1010.04 1010.55 1010.96 1011.26 1011.78 1012.18 1012.49 1012.78 1012.97 1013.25 1013.49 1013.65 1013.82 1014.04 1014.20 1014.31 1014.52 1014.69 1014.83
1006.91 1005.70 1004.84 1002.62 1000.36 999.20 998.54 998.91 998.60 999.35 999.28 999.39 999.40 999.23 1000.49 1001.76 1001.64 1001.92 1002.60 1002.89 1003.53 1004.52 1005.29 1006.94 1007.66 1008.14 1008.42 1008.87 1009.42 1009.90 1010.24 1010.63 1011.05 1011.52 1011.82 1012.24 1012.60 1012.96 1013.18 1013.45 1013.60 1013.83 1014.10 1014.30 1014.40 1014.57 1014.69 1014.81 1015.03
1006.50 1005.08 1003.15 1001.71 1000.80 999.31 999.38 999.53 1000.02 999.51 999.37 999.43 999.65 999.45 1000.68 1001.82 1002.39 1002.31 1002.95 1003.18 1003.67 1004.22 1004.91 1006.81 1007.72 1008.13 1008.49 1008.75 1009.27 1009.91 1010.32 1010.66 1011.14 1011.53 1011.91 1012.35 1012.72 1012.99 1013.34 1013.53 1013.80 1013.97 1014.17 1014.36 1014.64 1014.77 1014.93 1014.99 1015.09
1005.49 1004.49 1002.86 1001.13 1000.08 999.97 1000.35 1000.55 1000.55 1000.14 999.78 999.90 1000.04 1000.12 1000.69 1002.02 1002.30 1002.56 1002.85 1003.09 1003.44 1004.07 1004.77 1006.43 1007.80 1008.21 1008.56 1009.05 1009.31 1009.71 1010.41 1010.74 1011.14 1011.64 1012.02 1012.45 1012.79 1013.18 1013.53 1013.76 1013.98 1014.11 1014.24 1014.39 1014.61 1014.87 1015.05 1015.21 1015.38
1005.08 1003.59 1002.39 1001.17 999.97 999.73 1000.41 1001.09 1000.86 1000.58 1000.15 1000.32 1000.38 1000.67 1000.49 1001.71 1002.53 1002.46 1002.89 1002.91 1003.20 1003.86 1004.71 1006.17 1007.47 1008.24 1008.72 1009.02 1009.51 1009.95 1010.38 1010.84 1011.11 1011.65 1012.13 1012.56 1012.85 1013.15 1013.51 1013.87 1014.13 1014.32 1014.42 1014.58 1014.69 1014.82 1014.96 1015.18 1015.30
1004.76 1003.98 1002.38 1001.30 1000.32 999.82 1000.15 1001.34 1001.57 1001.19 1000.98 1001.11 1001.73 1000.94 1000.67 1002.03 1002.77 1002.39 1002.43 1002.59 1002.90 1003.54 1004.38 1005.50 1006.79 1007.82 1008.38 1009.01 1009.66 1009.95 1010.34 1010.77 1011.30 1011.44 1011.92 1012.44 1012.93 1013.25 1013.49 1013.81 1014.07 1014.27 1014.44 1014.62 1014.73 1014.85 1015.02 1015.20 1015.32
1004.57 1003.46 1002.08 1001.58 1000.83 1000.45 1000.91 1001.47 1002.33 1001.78 1002.21 1002.21 1001.95 1001.71 1001.60 1002.49 1002.84 1002.35 1002.35 1002.48 1002.56 1003.07 1004.04 1004.77 1006.07 1007.15 1007.77 1007.97 1009.23 1010.10 1010.37 1010.75 1011.25 1011.78 1012.00 1012.24 1012.18 1012.66 1013.09 1013.28 1013.71 1014.22 1014.53 1014.59 1014.68 1014.84 1014.95 1015.13 1015.16
1004.02 1002.90 1001.80 1001.87 1001.28 1000.74 1002.14 1002.15 1001.84 1001.59 1001.98 1002.01 1002.03 1002.17 1002.35 1002.44 1002.62 1002.76 1002.14 1002.18 1002.55 1002.97 1003.64 1004.38 1005.66 1006.52 1007.16 1007.15 1008.16 1009.41 1009.79 1010.34 1010.71 1011.07 1011.64 1011.71 1011.58 1011.61 1011.99 1012.54 1013.65 1014.05 1014.36 1014.64 1014.74 1014.89 1014.89 1015.01 1014.15
1003.44 1002.27 1001.78 1001.56 1001.96 1002.49 1002.29 1002.40 1002.23 1001.97 1002.12 1002.36 1002.11 1001.98 1002.11 1002.26 1002.52 1002.72 1002.73 1002.38 1001.95 1002.61 1003.36 1003.97 1005.14 1006.30 1006.74 1006.84 1007.25 1008.55 1008.82 1009.39 1009.91 1010.29 1010.58 1011.21 1011.08 1011.19 1011.71 1012.02 1012.97 1013.37 1014.08 1013.98 1014.37 1014.52 1014.45 1013.87 1013.35
1002.81 1002.36 1002.00 1001.78 1002.38 1003.16 1003.16 1002.78 1002.55 1002.53 1002.48 1002.54 1002.62 1002.75 1002.78 1002.65 1002.41 1002.16 1002.11 1002.05 1002.15 1002.13 1002.88 1003.80 1004.55 1005.92 1006.59 1006.56 1006.85 1007.59 1008.10 1008.42 1008.95 1009.49 1010.08 1010.34 1010.66 1010.79 1011.01 1011.20 1011.69 1012.53 1012.75 1013.08 1012.97 1013.11 1013.19 1013.17 1012.88
1002.68 1002.14 1002.49 1002.45 1002.72 1002.97 1003.09 1002.76 1002.62 1002.37 1002.57 1002.69 1002.92 1002.75 1002.61 1002.49 1002.31 1002.22 1002.13 1002.15 1002.52 1002.41 1002.41 1003.59 1004.33 1005.24 1006.26 1006.63 1006.44 1006.94 1007.45 1007.91 1008.15 1008.49 1009.36 1009.85 1010.08 1010.20 1010.68 1010.89 1010.87 1011.44 1011.62 1012.09 1012.31 1012.37 1012.47 1012.85 1013.01
1002.55 1002.74 1002.25 1002.55 1002.51 1002.62 1002.71 1002.40 1002.38 1002.26 1002.59 1002.90 1002.91 1002.81 1002.51 1002.17 1002.00 1002.14 1002.14 1002.10 1002.37 1002.63 1002.55 1003.03 1003.94 1004.79 1005.84 1006.50 1006.58 1006.64 1007.06 1007.22 1007.74 1008.01 1008.37 1009.51 1009.52 1009.79 1010.23 1010.56 1010.81 1010.67 1011.05 1010.93 1011.52 1011.87 1012.28 1012.63 1012.36
1002.85 1002.62 1002.56 1002.23 1002.20 1002.27 1002.41 1001.97 1001.57 1001.62 1001.89 1002.42 1002.53 1002.61 1002.48 1002.24 1002.02 1001.91 1001.80 1001.95 1002.26 1003.02 1003.21 1003.04 1003.51 1004.32 1005.25 1005.95 1006.65 1006.59 1006.78 1006.97 1007.33 1007.50 1007.93 1008.66 1009.36 1009.42 1010.06 1010.31 1010.39 1010.34 1010.81 1010.84 1011.21 1011.49 1011.82 1012.26 1011.82
1002.85 1002.66 1001.49 1000.71 1001.38 1001.79 1002.88 1001.12 1000.33 1000.93 1001.87 1002.23 1002.34 1002.33 1002.28 1002.49 1002.12 1001.90 1001.79 1002.03 1002.63 1003.03 1003.10 1003.33 1003.33 1003.51 1004.57 1005.34 1005.97 1006.60 1006.51 1006.64 1006.72 1007.23 1007.08 1008.09 1008.79 1009.12 1009.70 1009.87 1010.08 1010.22 1010.59 1010.82 1011.07 1011.48 1011.10 1011.44 1011.19
1002.07 1000.80 1000.37 999.92 1001.04 1001.59 1001.95 1000.89 1000.49 1001.23 1001.87 1002.01 1001.97 1001.81 1001.72 1001.69 1001.83 1001.98 1002.16 1002.29 1002.52 1002.84 1003.13 1003.14 1003.15 1003.66 1004.23 1004.93 1005.45 1006.01 1006.15 1006.18 1006.35 1006.52 1006.96 1007.21 1008.24 1008.63 1009.38 1009.44 1009.44 1010.13 1010.33 1010.24 1010.85 1010.78 1010.65 1010.55 1010.83
1000.08 1000.26 1000.07 999.95 1000.39 1001.33 1001.44 1001.02 1000.86 1000.94 1001.06 1001.14 1001.22 1001.18 1001.27 1001.26 1001.31 1001.51 1001.79 1002.24 1002.63 1003.02 1003.23 1003.30 1003.32 1003.01 1003.74 1004.48 1005.10 1005.54 1005.71 1005.68 1005.71 1005.83 1006.08 1006.46 1007.39 1008.09 1008.69 1008.96 1008.70 1009.16 1009.75 1010.06 1010.35 1010.35 1010.45 1010.03 1010.32
1001.07 1000.82 1000.41 1000.36 1000.90 1001.64 1001.58 1001.33 1000.99 1000.97 1000.83 1000.66 1000.58 1000.60 1000.63 1000.69 1000.88 1001.14 1001.51 1001.96 1002.31 1002.44 1002.93 1003.30 1003.45 1003.54 1003.04 1003.40 1003.80 1004.56 1004.48 1004.63 1004.82 1005.10 1005.13 1005.43 1006.16 1006.84 1007.74 1008.12 1007.99 1008.60 1008.71 1009.24 1009.31 1009.73 1010.15 1010.09 1010.30
1002.37 1001.89 1001.46 1001.37 1001.54 1001.94 1001.75 1001.28 1001.04 1000.80 1000.44 1000.33 1000.38 1000.48 1000.57 1000.56 1000.62 1000.69 1000.95 1001.22 1001.54 1001.94 1002.22 1002.68 1003.06 1003.16 1003.05 1002.88 1002.93 1003.22 1003.64 1003.25 1003.67 1004.21 1004.55 1004.71 1005.24 1005.89 1006.70 1007.05 1007.17 1007.69 1008.25 1008.89 1008.73 1008.76 1009.17 1009.71 1009.85
1002.47 1002.11 1001.61 1001.58 1001.74 1002.03 1001.74 1000.69 1000.01 999.59 999.41 999.56 1000.00 1000.49 1000.65 1000.76 1000.97 1001.07 1001.13 1001.25 1001.40 1001.57 1002.12 1002.24 1002.41 1002.65 1002.88 1002.62 1002.66 1002.94 1002.97 1003.01 1002.95 1003.36 1003.57 1004.34 1004.68 1005.25 1005.91 1006.56 1006.76 1006.71 1007.36 1007.75 1008.06 1008.57 1008.88 1008.59 1009.02
1001.94 1001.75 1002.04 1002.28 1002.35 1001.22 1000.83 999.75 999.46 999.14 998.94 999.29 999.65 1000.02 1000.30 1000.68 1000.93 1001.16 1001.16 1001.19 1001.44 1001.88 1002.02 1002.18 1002.23 1002.37 1002.31 1002.50 1001.92 1001.85 1001.78 1001.79 1001.80 1002.21 1002.70 1003.32 1004.13 1004.59 1005.39 1006.00 1006.39 1006.32 1006.64 1007.02 1007.31 1007.96 1008.55 1009.07 1008.28
1002.22 1002.31 1002.80 1002.79 1002.28 1001.66 1000.76 999.63 998.61 998.54 998.60 999.13 1000.04 1000.79 1001.31 1001.39 1001.50 1001.72 1001.97 1002.20 1002.31 1002.53 1002.48 1002.50 1002.29 1002.02 1001.84 1001.94 1001.66 1001.27 1001.57 1001.49 1001.35 1001.37 1001.99 1002.41 1002.90 1003.79 1004.53 1005.18 1005.75 1006.04 1006.15 1006.62 1007.02 1007.74 1008.18 1008.31 1008.45
1003.23 1003.22 1002.97 1002.56 1001.87 1000.66 999.68 998.98 998.19 998.35 999.42 1000.44 1001.45 1001.97 1002.35 1002.49 1002.60 1002.57 1002.56 1002.45 1002.67 1002.74 1002.66 1002.71 1002.41 1001.89 1001.39 1001.20 1001.18 1001.02 1000.67 1001.04 1000.73 1000.85 1000.93 1001.26 1001.88 1002.74 1003.24 1004.10 1004.83 1005.31 1005.77 1006.10 1006.83 1007.16 1007.42 1007.72 1008.10
1003.00 1003.11 1002.05 1001.25 1000.44 999.66 999.19 999.30 998.93 999.51 1000.67 1001.98 1002.70 1002.96 1002.96 1002.97 1002.97 1002.86 1002.67 1002.60 1002.83 1002.80 1002.72 1002.75 1002.10 1001.66 1001.14 1000.51 1000.39 1000.28 1000.53 1000.51 1000.56 1000.74 1000.98 1000.40 1000.48 1001.12 1002.27 1003.00 1003.80 1004.56 1005.10 1005.44 1006.14 1006.57 1006.95 1007.65 1008.09
1002.58 1002.67 1002.48 1002.14 1001.48 1000.29 1000.00 999.60 999.23 1000.42 1001.36 1002.47 1002.90 1003.38 1003.41 1003.54 1003.47 1003.45 1003.26 1003.09 1002.86 1002.73 1002.66 1002.31 1001.89 1001.50 1001.10 1000.26 999.60 999.47 999.52 999.74 1000.06 1000.12 1000.37 999.65 998.60 999.40 1000.82 1002.26 1002.78 1003.57 1004.44 1005.10 1005.70 1006.43 1006.97 1007.58 1008.01
1003.18 1003.43 1003.78 1003.88 1003.80 1002.94 1001.65 1000.14 999.58 1000.22 1001.26 1002.42 1002.68 1002.82 1003.30 1003.44 1003.47 1003.27 1003.15 1003.03 1002.86 1002.98 1002.56 1002.15 1001.67 1001.24 1000.83 1000.21 999.36 998.75 999.07 999.52 999.61 999.49 999.19 998.55 997.77 999.03 996.70 1001.08 1001.54 1002.85 1003.51 1004.28 1005.06 1005.72 1006.30 1006.40 1006.92
1004.77 1004.28 1004.55 1004.45 1004.48 1003.13 1001.18 1000.42 999.94 1000.55 1001.43 1001.92 1001.96 1002.52 1002.72 1002.64 1002.71 1002.85 1002.97 1002.84 1002.80 1002.77 1002.33 1002.02 1001.67 1001.06 1000.36 1000.00 999.31 998.45 998.34 998.70 998.91 998.41 998.25 997.21 993.38 996.35 997.44 996.62 998.82 1001.42 1002.49 1003.16 1003.99 1004.35 1005.03 1005.50 1006.05
1004.67 1004.68 1005.03 1005.27 1005.39 1004.82 1003.32 1001.39 1001.05 1001.65 1002.16 1002.19 1002.22 1002.20 1002.14 1002.22 1002.23 1002.45 1002.49 1002.36 1002.35 1002.16 1001.74 1001.70 1001.35 1001.20 1000.34 999.89 999.33 998.64 998.05 997.89 998.01 998.39 998.82 997.97 993.40 995.69 998.14 995.97 997.81 1000.39 1001.47 1002.24 1003.08 1003.49 1003.80 1004.54 1005.20
1004.53 1004.51 1004.48 1004.87 1005.07 1004.50 1003.81 1002.48 1001.94 1002.31 1002.07 1002.12 1001.67 1001.64 1001.83 1002.08 1002.27 1002.34 1002.21 1002.16 1002.03 1001.73 1001.58 1001.59 1001.53 1001.00 1000.59 1000.01 999.72 998.91 998.69 998.06 997.68 998.49 998.95 998.97 996.89 998.15 998.22 999.08 999.75 1000.41 1001.15 1001.85 1002.44 1003.02 1003.11 1003.88 1004.67
Wind_Speed
20 14 9 9 9 10 18 20 7 4 7 5 4 10 13 12 19 7 4 6 15 20 19 17 15 18 17 16 15 14 14 14 14 14 14 13 13 12 12 11 10 10 11 10 10 9 9 8 8
14 16 10 10 11 15 14 12 10 4 8 3 4 6 9 12 12 9 9 5 13 18 17 17 14 16 16 16 16 15 14 14 15 14 13 13 12 12 12 11 11 11 10 10 10 9 8 8 7
16 14 11 13 14 17 8 5 10 10 4 0 2 2 8 14 11 7 13 9 15 15 16 16 13 14 15 13 14 14 15 14 14 15 14 13 12 11 11 11 10 10 10 9 9 8 7 6 6
12 10 10 12 19 21 3 18 10 6 6 1 1 4 11 10 6 6 11 11 14 15 16 19 14 13 15 15 13 13 14 14 14 14 14 13 12 11 11 10 9 9 9 8 8 7 6 6 5
10 9 13 17 21 19 2 6 1 8 2 2 3 8 14 11 8 9 9 10 12 14 15 17 14 14 14 15 15 13 14 15 14 14 14 13 12 12 11 10 9 9 9 8 7 6 4 4 5
12 12 16 17 20 19 6 9 7 10 4 6 8 3 14 10 8 6 8 9 11 13 14 16 15 14 14 14 15 15 13 14 14 13 13 12 11 10 9 9 9 8 9 8 8 6 5 3 3
17 15 19 21 18 18 12 15 10 12 13 7 6 10 11 13 7 2 5 6 10 12 12 15 17 15 14 14 14 14 13 13 14 13 11 10 10 10 10 9 8 8 8 7 7 7 6 5 5
14 14 24 21 18 20 11 10 11 11 12 7 2 8 3 11 5 2 6 7 9 13 13 15 16 16 15 14 12 14 14 13 12 15 15 12 10 9 10 8 8 9 8 8 7 7 6 6 6
13 15 19 23 22 20 8 9 12 14 10 8 11 11 10 6 9 2 5 7 8 10 11 13 16 15 15 16 14 11 13 13 13 12 12 13 10 12 13 12 13 9 7 8 7 7 7 7 9
14 15 22 21 18 10 13 18 16 11 15 15 14 13 13 11 8 8 7 9 10 10 12 12 13 14 15 12 15 14 13 12 12 13 13 11 11 10 11 12 13 10 9 8 7 7 7 8 9
18 19 19 18 4 8 13 14 14 13 17 17 16 14 13 10 10 10 9 12 11 14 9 11 14 11 14 13 11 8 9 9 10 15 13 12 10 9 9 8 8 8 10 8 10 9 8 10 9
17 20 18 10 6 12 17 16 15 16 16 15 13 13 15 16 15 15 14 11 11 12 14 11 12 13 11 10 10 11 11 11 10 13 13 10 8 8 7 8 10 8 9 9 9 8 8 10 8
16 14 13 13 12 12 13 15 15 16 14 9 12 15 14 14 15 15 15 13 9 14 12 13 12 14 12 12 10 10 11 11 12 12 13 11 11 9 9 8 8 10 10 10 8 7 6 7 9
14 17 11 12 14 13 15 15 15 15 8 12 13 13 14 13 13 13 13 13 11 12 12 13 15 11 14 12 13 9 8 11 10 9 11 15 11 9 10 9 10 9 10 9 9 7 6 7 9
7 12 13 14 13 12 11 15 19 18 15 13 12 11 12 13 14 14 12 13 8 7 11 12 13 12 14 14 12 10 12 12 11 11 12 16 12 11 12 9 10 10 8 6 5 6 6 7 7
14 13 14 17 17 10 6 13 7 6 2 10 11 12 12 13 15 14 12 9 9 10 9 12 12 14 15 15 11 11 10 10 8 10 10 15 14 11 11 10 10 9 8 8 8 9 9 9 9
12 13 16 9 11 9 13 11 3 2 9 13 13 13 13 13 13 10 11 12 10 8 8 10 11 15 12 13 12 13 14 12 11 10 11 14 14 16 10 11 9 9 9 8 9 7 8 8 8
10 17 13 7 6 11 13 15 13 13 14 13 13 13 12 13 13 12 11 10 11 8 7 8 10 10 14 12 11 10 11 10 11 12 13 16 14 16 12 11 8 12 11 10 10 9 9 8 8
10 14 11 8 3 9 14 16 16 14 15 16 16 14 14 13 12 12 12 11 14 10 8 7 8 11 10 12 13 13 13 13 13 11 14 16 16 17 16 13 12 12 11 12 12 10 8 8 7
11 13 14 12 10 10 14 17 16 17 19 18 17 15 16 15 15 14 13 13 13 11 10 9 9 10 12 10 9 10 12 11 11 12 14 15 15 15 14 14 13 14 11 12 11 13 10 10 8
14 14 13 12 10 12 18 21 22 16 12 10 10 14 13 14 15 16 16 15 13 11 12 12 10 9 12 15 12 11 11 10 9 10 11 13 15 15 15 17 14 12 12 11 12 11 12 9 9
13 7 9 8 13 14 14 15 17 17 15 13 13 10 9 11 13 14 14 13 13 15 14 14 12 13 11 14 15 17 14 14 14 13 13 13 15 14 15 14 14 11 10 12 8 9 10 9 8
10 13 8 14 16 18 19 14 14 15 13 5 11 13 15 16 13 15 14 14 13 14 13 12 13 13 13 12 16 15 16 15 12 11 15 16 16 17 16 16 14 14 11 10 10 10 11 9 9
10 13 16 18 16 16 20 18 10 4 12 11 12 15 10 14 12 12 11 8 10 13 13 14 14 14 14 13 15 18 20 17 14 15 14 13 12 14 17 17 14 13 12 12 12 12 13 9 6
11 12 12 14 13 14 3 8 9 15 8 6 8 11 11 11 12 13 12 14 11 14 13 13 15 17 16 15 15 18 20 19 18 14 13 14 13 12 14 17 15 13 13 12 12 12 11 12 12
16 11 9 13 13 16 20 9 2 6 3 5 5 4 11 11 11 13 13 13 15 15 15 16 14 15 18 17 15 16 19 14 14 15 13 15 9 14 17 16 14 14 15 14 11 9 9 12 9
7 8 5 10 12 14 14 16 12 9 6 5 6 6 7 12 12 14 15 14 12 14 15 14 16 17 15 17 16 14 14 17 16 18 19 12 16 13 22 20 16 16 14 14 14 12 14 12 12
9 12 7 6 5 8 7 11 7 7 5 10 9 7 11 10 13 11 13 13 13 13 14 14 13 13 16 14 16 15 13 15 17 18 19 22 20 11 15 23 19 16 16 15 15 13 14 13 11
8 11 9 8 7 6 8 6 9 11 12 12 13 13 16 15 13 13 13 14 14 16 13 13 14 14 13 15 14 14 14 12 13 10 15 15 6 8 12 6 12 15 14 13 13 13 12 15 13
9 14 11 10 10 10 13 13 12 1 10 12 13 13 15 13 14 14 15 15 16 15 14 13 15 12 13 11 12 13 13 12 12 7 14 23 9 12 12 14 15 14 14 12 13 14 14 14 11
Wind_Direction
286 271 280 255 241 230 242 236 318 144 193 72 288 273 341 340 19 35 82 100 127 125 145 152 143 139 144 153 149 148 150 152 153 150 148 149 147 145 140 132 128 131 130 127 126 128 136 132 123
295 291 262 268 243 239 237 234 178 126 42 254 227 245 241 76 28 99 119 119 135 126 147 155 144 141 142 148 151 152 155 158 157 152 151 153 152 148 144 138 140 139 138 139 139 143 144 136 135
266 269 274 232 240 252 234 318 210 95 197 287 244 298 12 8 50 22 92 145 132 138 156 139 145 140 139 146 149 154 156 161 160 154 155 159 155 151 144 144 145 148 149 148 146 148 144 145 146
259 230 241 259 244 236 93 217 73 226 165 143 318 136 101 42 11 349 125 145 133 146 164 131 143 145 146 147 151 159 162 163 161 159 157 160 158 152 146 148 149 153 155 156 154 150 150 152 166
238 263 241 226 240 263 228 9 252 262 317 262 300 106 89 65 66 93 128 148 154 154 151 152 149 151 154 154 155 163 167 162 160 159 159 161 158 152 151 151 155 157 161 162 159 153 153 162 181
230 231 241 236 232 240 159 262 258 261 278 275 253 304 95 82 62 120 150 163 166 160 161 153 155 157 158 162 160 159 167 161 154 155 158 161 156 150 151 154 160 163 164 165 162 164 169 178 204
237 233 239 248 249 228 193 231 257 253 261 243 40 284 116 72 21 105 164 174 174 164 172 154 175 169 161 162 161 159 160 157 150 149 152 155 154 150 153 157 164 170 164 163 164 168 177 196 215
233 247 250 241 254 248 161 247 252 265 266 13 321 246 178 71 354 142 200 189 194 169 177 162 176 183 185 173 165 163 158 154 160 157 153 150 152 157 163 157 174 178 173 174 173 179 188 208 228
229 238 236 245 243 252 297 235 247 261 294 263 273 286 317 6 307 280 220 213 198 179 180 170 173 179 195 187 172 167 164 163 161 166 161 157 193 182 174 197 156 177 189 187 186 192 197 216 232
220 228 233 236 253 241 246 268 264 236 230 253 251 249 260 263 250 292 269 221 202 198 183 187 172 184 195 204 170 194 189 194 196 195 189 210 207 199 205 174 160 170 192 208 206 210 214 224 247
214 241 223 244 313 277 267 245 266 271 260 263 274 281 286 284 273 267 257 286 259 190 209 209 163 192 199 213 170 189 197 198 200 210 200 207 197 203 194 167 179 192 194 213 200 203 229 225 239
234 224 256 266 225 229 252 266 257 254 268 282 277 275 271 264 261 256 250 243 257 242 192 206 190 188 207 211 192 188 204 191 201 200 203 203 212 201 197 210 191 191 191 217 209 214 222 222 246
218 241 230 250 254 244 255 257 260 259 262 262 272 270 260 258 262 262 257 260 252 272 202 205 210 183 200 224 208 205 204 195 202 195 193 213 201 195 198 205 215 184 207 184 228 229 201 228 246
202 242 237 235 241 239 251 260 253 247 224 259 244 256 265 261 257 250 258 262 269 258 250 215 205 207 189 211 236 193 209 204 201 206 192 205 205 194 196 211 211 205 207 205 196 208 223 225 251
231 236 229 238 230 237 249 267 256 244 239 245 261 263 266 272 269 267 264 245 234 260 279 271 213 209 192 201 214 229 217 220 199 207 195 187 213 197 208 199 210 210 210 221 195 206 195 248 254
230 228 247 215 210 220 208 265 261 127 232 246 243 248 243 260 272 265 270 262 286 283 283 220 249 208 197 201 205 221 220 211 220 202 196 188 198 220 194 207 202 223 203 199 208 205 209 219 228
204 244 212 182 181 238 200 274 289 143 238 261 266 262 259 257 249 248 256 269 269 287 278 270 223 220 225 204 202 209 224 216 213 202 214 186 194 199 215 214 202 209 221 201 212 216 217 209 237
238 206 250 246 177 199 252 257 260 269 263 265 272 270 267 266 257 254 252 248 262 267 280 259 265 241 201 215 208 213 225 218 217 213 200 194 193 195 205 219 209 189 211 208 212 217 218 217 230
329 299 299 285 252 284 274 274 278 280 276 269 267 273 272 263 258 261 249 263 268 267 279 251 244 256 234 210 213 211 214 218 210 223 217 200 188 196 201 211 205 199 204 222 194 201 225 214 221
255 259 258 255 253 261 272 272 273 272 270 270 270 275 275 276 278 275 271 266 259 269 277 279 270 256 234 225 215 216 221 218 214 206 216 212 199 197 198 212 210 199 206 216 225 196 198 213 224
235 257 266 276 303 287 267 258 247 246 258 250 238 247 262 267 277 284 283 278 284 279 295 283 287 274 261 228 226 217 223 218 214 218 209 204 206 200 203 207 220 200 201 209 205 204 211 206 201
259 244 288 275 269 276 321 294 284 266 252 247 249 272 291 298 320 306 294 307 329 330 323 317 309 296 271 249 236 229 217 217 216 209 214 204 203 209 211 218 210 217 200 206 201 203 208 234 221
278 322 288 279 279 279 270 263 271 278 262 281 0 341 333 309 326 346 335 325 323 310 308 303 290 275 273 272 260 235 225 224 227 209 210 205 190 200 213 207 214 205 219 201 210 192 196 201 231
302 286 269 267 265 260 262 257 266 304 13 359 349 326 319 327 328 315 310 306 318 322 325 325 310 292 280 260 256 242 247 227 233 214 209 204 203 191 200 206 204 202 203 210 203 191 196 214 180
222 269 268 257 238 247 24 319 302 320 46 6 319 315 320 322 315 307 311 315 319 305 317 316 326 314 290 264 252 251 233 237 225 238 229 204 193 190 192 196 192 198 198 194 195 188 184 190 189
293 292 273 291 288 303 330 300 128 118 97 153 302 350 321 324 324 319 317 320 318 318 317 311 327 323 309 284 254 241 240 231 232 225 225 234 205 181 172 189 189 195 193 194 186 194 201 202 211
332 237 318 298 290 267 256 250 222 126 199 153 245 328 323 303 319 310 311 312 309 319 314 318 324 321 316 292 276 252 242 241 233 233 225 238 203 210 147 178 182 194 194 188 189 208 203 221 213
266 315 271 230 261 279 286 325 286 12 8 303 324 317 281 301 295 305 308 303 309 302 305 315 314 321 317 305 288 271 235 240 240 236 226 223 195 196 159 172 170 191 198 201 198 205 212 200 210
173 236 222 268 229 240 292 271 21 6 350 332 323 300 305 322 314 309 304 307 302 302 305 313 317 317 320 323 306 283 280 247 240 258 264 252 91 132 187 176 170 192 201 204 201 224 220 215 217
308 295 266 214 241 235 245 268 281 257 252 257 285 306 316 313 314 305 304 307 301 301 306 312 310 311 319 325 330 309 309 279 267 185 154 258 189 182 190 183 189 195 199 204 210 216 230 220 214